Voltar ao catálogo

FENGYUN 1C DEB

LostPO
NORAD 38803·DEBRIS·🇨🇳 China

Lançado May 10, 1999 de Taiyuan Satellite Launch Center

Loading…

Próximas Passagens (próximas 24 horas)

TLE

ObsoletoSource: Space-Track

Época: Jul 31, 2026, 00:14 UTC

1 38803U 99025EUT 26212.01039919  .00003483  00000-0  14574-2 0  9993
2 38803  99.1330 230.1117 0064775  96.5693 264.2864 14.25618402634919

Acompanhe FENGYUN 1C DEB em tempo real com AllMySat

Download on the App Store